Flag for U.S.A. Weather past 2 weeks in Barnstable, Massachusetts, U.S.A.

Now
62 °F

Light rain. Low clouds.


Feels Like: 62 °F
Forecast: 61 / 66 °F
Wind: 10 mph from Northeast

Location: Barnstable Municipal-Boardman Airport

Current Time: Sep 30, 2014 at 4:18:36 PM

Latest Report: Sep 30, 2014 at 3:56 PM


Visibility: 10 mi

Pressure: 29.94 "Hg

Humidity: 93%

Dew point: 60 °F

Location of BarnstableLocation

Historic Weather in Barnstable — Graph

°F

Barnstable temperature yesterday

Maximum temperature yesterday: 75 °F (at 3:56 PM)
Minimum temperature yesterday: 63 °F (at 11:56 PM)
Average temperature yesterday: 68 °F

Past Weeks' High & Low Weather Summary

 TemperatureHumidityPressure
High77 °F (Sep 22, 2:56 PM)97% (Sep 26, 9:56 PM)30.60 "Hg (Sep 26, 9:56 PM)
Low38 °F (Sep 20, 12:56 AM)30% (Sep 22, 3:56 PM)29.54 "Hg (Sep 22, 12:56 AM)
Average61 °F75%30.11 "Hg
* Reported Sep 15 2:56 PM — Sep 30 2:56 PM, Barnstable, Weather by CustomWeather, © 2014

Note: Actual official high and low records may vary slightly from our data, if they occured in-between our weather recording intervals... More about our weather records

Advertising

Barnstable weather history for previous 24 hours

 ConditionsComfort  
Time TempWeatherWind HumidityBarometerVisibility
2:56 PM
Sep 30
62 °FLight rain. Fog.13 mph93%29.96 "Hg6 mi
1:56 PM62 °FLight rain. Fog.12 mph93%29.95 "Hg6 mi
12:56 PM62 °FLight rain. Fog.9 mph93%29.98 "Hg5 mi
11:56 AM61 °FLight rain. Fog.12 mph97%29.98 "Hg2 mi
10:56 AM61 °FLight rain. Fog.9 mph93%30.00 "Hg1 mi
9:56 AM61 °FFog.9 mph97%30.00 "Hg1 mi
8:56 AM61 °FFog.10 mph97%29.98 "Hg1 mi
7:56 AM62 °FFog.8 mph93%29.99 "Hg3 mi
6:56 AM61 °FFog.9 mph93%29.98 "Hg5 mi
5:56 AM62 °FLow clouds.7 mph90%29.96 "Hg10 mi
4:56 AM62 °FLow clouds.8 mph90%29.96 "Hg10 mi
3:56 AM61 °FLow clouds.9 mph90%29.95 "Hg10 mi
2:56 AM62 °FMostly cloudy.12 mph90%29.96 "Hg9 mi
1:56 AM62 °FLow clouds.6 mph93%29.97 "Hg9 mi
1:03 AM62 °FFog.9 mph96%29.97 "Hg2 mi
11:56 PM
Sep 29
63 °FFog.6 mph93%29.97 "Hg1 mi
10:56 PM64 °FFog.5 mph94%29.98 "Hg4 mi
9:56 PM65 °FFog.3 mph91%29.96 "Hg5 mi
8:56 PM64 °FFog.5 mph94%29.95 "Hg6 mi
7:56 PM65 °FPassing clouds.No wind87%29.96 "Hg9 mi
6:56 PM65 °FPassing clouds.No wind91%29.96 "Hg10 mi
5:56 PM68 °FSunny.5 mph78%29.95 "Hg10 mi
4:56 PM70 °FSunny.5 mph73%29.94 "Hg10 mi
Weather by CustomWeather, © 2014

See weather overviewHow to use our weather pages